User: anonymous   Login
Location: Unspecified
(0.0000°N, 0.0000°E)
Time: 19:11:31
(UTC+00:00)
Language:

GONETS M04 - Orbit

View from above orbital plane
View from above orbital plane
View from above satellite
View from above satellite

Ground track
Ground track

The orbit data is extracted from the following two-line orbital elements,

1 38736U 12041D   18140.38333240  .00000010  00000-0 -10755-5 0  9990
2 38736  82.4764 113.6593 0025368  18.4855 341.7138 12.43801968263654
Epoch (UTC): 20 May 2018 09:11:59
Eccentricity: 0.0025368
inclination: 82.4764°
perigee height: 1470 km
apogee height: 1510 km
right ascension of ascending node: 113.6593°
argument of perigee: 18.4855°
revolutions per day: 12.43801968
mean anomaly at epoch: 341.7138°
orbit number at epoch: 26365

The dashed part of the orbit path shows where the satellite is in the earth's shadow,  

DLR